owner,sensor,date,latitude,longitude,vertical_datum,sea_water_practical_salinity,qcFlag 
SCCF RECON,ioos:station:SCCF:53:1,2008-10-01T00:00:00Z,26.6493,-81.8810,2.37,0.22,1111122 
SCCF RECON,ioos:station:SCCF:53:1,2008-10-01T01:00:00Z,26.6493,-81.8810,2.34,0.22,1111122 
SCCF RECON,ioos:station:SCCF:53:1,2008-10-01T02:00:00Z,26.6493,-81.8810,2.3,0.22,1111122 
SCCF RECON,ioos:station:SCCF:53:1,2008-10-01T03:00:00Z,26.6493,-81.8810,2.27,0.22,1111122 
SCCF RECON,ioos:station:SCCF:53:1,2008-10-01T04:00:00Z,26.6493,-81.8810,2.31,0.22,1111122 
SCCF RECON,ioos:station:SCCF:53:1,2008-10-01T05:00:00Z,26.6493,-81.8810,2.39,0.22,1111122 
SCCF RECON,ioos:station:SCCF:53:1,2008-10-01T06:00:00Z,26.6493,-81.8810,2.45,0.22,1111122 
SCCF RECON,ioos:station:SCCF:53:1,2008-10-01T07:00:00Z,26.6493,-81.8810,2.51,0.22,1111122 
SCCF RECON,ioos:station:SCCF:53:1,2008-10-01T08:00:00Z,26.6493,-81.8810,2.56,0.22,1111122 
SCCF RECON,ioos:station:SCCF:53:1,2008-10-01T09:00:00Z,26.6493,-81.8810,2.56,0.22,1111122 
SCCF RECON,ioos:station:SCCF:53:1,2008-10-01T10:00:00Z,26.6493,-81.8810,2.513,0.22,1111122 
SCCF RECON,ioos:station:SCCF:53:1,2008-10-01T11:00:00Z,26.6493,-81.8810,2.45,0.22,1111122 
SCCF RECON,ioos:station:SCCF:53:1,2008-10-01T12:00:00Z,26.6493,-81.8810,2.4,0.22,1111122 
SCCF RECON,ioos:station:SCCF:53:1,2008-10-01T13:00:00Z,26.6493,-81.8810,2.35,0.23,1111122 
SCCF RECON,ioos:station:SCCF:53:1,2008-10-01T14:00:00Z,26.6493,-81.8810,2.298,0.23,1111122 
SCCF RECON,ioos:station:SCCF:53:1,2008-10-01T15:00:00Z,26.6493,-81.8810,2.24,0.23,1111122 
SCCF RECON,ioos:station:SCCF:53:1,2008-10-01T16:00:00Z,26.6493,-81.8810,2.198,0.23,1111122 
SCCF RECON,ioos:station:SCCF:53:1,2008-10-01T17:00:00Z,26.6493,-81.8810,2.18,0.23,1111122 
SCCF RECON,ioos:station:SCCF:53:1,2008-10-01T18:00:00Z,26.6493,-81.8810,2.232,0.23,1111122 
SCCF RECON,ioos:station:SCCF:53:1,2008-10-01T19:00:00Z,26.6493,-81.8810,2.291,0.22,1111122 
SCCF RECON,ioos:station:SCCF:53:1,2008-10-01T20:00:00Z,26.6493,-81.8810,2.34,0.23,1111122 
SCCF RECON,ioos:station:SCCF:53:1,2008-10-01T21:00:00Z,26.6493,-81.8810,2.392,0.23,1111122 
SCCF RECON,ioos:station:SCCF:53:1,2008-10-01T22:00:00Z,26.6493,-81.8810,2.422,0.23,1111122 
SCCF RECON,ioos:station:SCCF:53:1,2008-10-01T23:00:00Z,26.6493,-81.8810,2.42,0.23,1111122 
SCCF RECON,ioos:station:SCCF:53:1,2008-10-02T00:00:00Z,26.6493,-81.8810,2.37,0.23,1111122 
SCCF RECON,ioos:station:SCCF:53:1,2008-10-02T01:00:00Z,26.6493,-81.8810,2.33,0.23,1111122 
SCCF RECON,ioos:station:SCCF:53:1,2008-10-02T02:00:00Z,26.6493,-81.8810,2.29,0.23,1111122 
SCCF RECON,ioos:station:SCCF:53:1,2008-10-02T03:00:00Z,26.6493,-81.8810,2.25,0.23,1111122 
SCCF RECON,ioos:station:SCCF:53:1,2008-10-02T04:00:00Z,26.6493,-81.8810,2.25,0.23,1111122 
SCCF RECON,ioos:station:SCCF:53:1,2008-10-02T05:00:00Z,26.6493,-81.8810,2.308,0.23,1111122 
SCCF RECON,ioos:station:SCCF:53:1,2008-10-02T06:00:00Z,26.6493,-81.8810,2.371,0.23,1111122 
SCCF RECON,ioos:station:SCCF:53:1,2008-10-02T07:00:00Z,26.6493,-81.8810,2.44,0.23,1111122 
SCCF RECON,ioos:station:SCCF:53:1,2008-10-02T08:00:00Z,26.6493,-81.8810,2.5,0.23,1111122 
SCCF RECON,ioos:station:SCCF:53:1,2008-10-02T09:00:00Z,26.6493,-81.8810,2.54,0.23,1111122 
SCCF RECON,ioos:station:SCCF:53:1,2008-10-02T10:00:00Z,26.6493,-81.8810,2.53,0.23,1111122 
SCCF RECON,ioos:station:SCCF:53:1,2008-10-02T11:00:00Z,26.6493,-81.8810,2.47,0.23,1111122 
SCCF RECON,ioos:station:SCCF:53:1,2008-10-02T12:00:00Z,26.6493,-81.8810,2.41,0.23,1111122 
SCCF RECON,ioos:station:SCCF:53:1,2008-10-02T13:00:00Z,26.6493,-81.8810,2.36,0.23,1111122 
SCCF RECON,ioos:station:SCCF:53:1,2008-10-02T14:00:00Z,26.6493,-81.8810,2.3,0.23,1111122 
SCCF RECON,ioos:station:SCCF:53:1,2008-10-02T15:00:00Z,26.6493,-81.8810,2.249,0.23,1111122 
SCCF RECON,ioos:station:SCCF:53:1,2008-10-02T16:00:00Z,26.6493,-81.8810,2.191,0.23,1111122 
SCCF RECON,ioos:station:SCCF:53:1,2008-10-02T17:00:00Z,26.6493,-81.8810,2.147,0.23,1111122 
SCCF RECON,ioos:station:SCCF:53:1,2008-10-02T18:00:00Z,26.6493,-81.8810,2.134,0.23,1111122 
SCCF RECON,ioos:station:SCCF:53:1,2008-10-02T19:00:00Z,26.6493,-81.8810,2.19,0.23,1111122 
SCCF RECON,ioos:station:SCCF:53:1,2008-10-02T20:00:00Z,26.6493,-81.8810,2.24,0.23,1111122 
SCCF RECON,ioos:station:SCCF:53:1,2008-10-02T21:00:00Z,26.6493,-81.8810,2.29,0.23,1111122 
SCCF RECON,ioos:station:SCCF:53:1,2008-10-02T22:00:00Z,26.6493,-81.8810,2.34,0.23,1111122 
SCCF RECON,ioos:station:SCCF:53:1,2008-10-02T23:00:00Z,26.6493,-81.8810,2.356,0.23,1111122 
SCCF RECON,ioos:station:SCCF:53:1,2008-10-03T00:00:00Z,26.6493,-81.8810,2.34,0.23,1111122 
SCCF RECON,ioos:station:SCCF:53:1,2008-10-03T01:00:00Z,26.6493,-81.8810,2.31,0.23,1111122 
SCCF RECON,ioos:station:SCCF:53:1,2008-10-03T02:00:00Z,26.6493,-81.8810,2.27,0.23,1111122 
SCCF RECON,ioos:station:SCCF:53:1,2008-10-03T03:00:00Z,26.6493,-81.8810,2.24,0.23,1111122 
SCCF RECON,ioos:station:SCCF:53:1,2008-10-03T04:00:00Z,26.6493,-81.8810,2.24,0.23,1111122 
SCCF RECON,ioos:station:SCCF:53:1,2008-10-03T05:00:00Z,26.6493,-81.8810,2.28,0.23,1111122 
SCCF RECON,ioos:station:SCCF:53:1,2008-10-03T06:00:00Z,26.6493,-81.8810,2.34,0.23,1111122 
SCCF RECON,ioos:station:SCCF:53:1,2008-10-03T07:00:00Z,26.6493,-81.8810,2.401,0.23,1111122 
SCCF RECON,ioos:station:SCCF:53:1,2008-10-03T08:00:00Z,26.6493,-81.8810,2.461,0.23,1111122 
SCCF RECON,ioos:station:SCCF:53:1,2008-10-03T09:00:00Z,26.6493,-81.8810,2.51,0.23,1111122 
SCCF RECON,ioos:station:SCCF:53:1,2008-10-03T10:00:00Z,26.6493,-81.8810,2.52,0.23,1111122 
SCCF RECON,ioos:station:SCCF:53:1,2008-10-03T11:00:00Z,26.6493,-81.8810,2.48,0.23,1111122 
SCCF RECON,ioos:station:SCCF:53:1,2008-10-03T12:00:00Z,26.6493,-81.8810,2.42,0.23,1111122 
SCCF RECON,ioos:station:SCCF:53:1,2008-10-03T13:00:00Z,26.6493,-81.8810,2.37,0.23,1111122 
SCCF RECON,ioos:station:SCCF:53:1,2008-10-03T14:00:00Z,26.6493,-81.8810,2.304,0.23,1111122 
SCCF RECON,ioos:station:SCCF:53:1,2008-10-03T15:00:00Z,26.6493,-81.8810,2.25,0.23,1111122 
SCCF RECON,ioos:station:SCCF:53:1,2008-10-03T16:00:00Z,26.6493,-81.8810,2.19,0.23,1111122 
SCCF RECON,ioos:station:SCCF:53:1,2008-10-03T17:00:00Z,26.6493,-81.8810,2.13,0.23,1111122 
SCCF RECON,ioos:station:SCCF:53:1,2008-10-03T18:00:00Z,26.6493,-81.8810,2.1,0.23,1111122 
SCCF RECON,ioos:station:SCCF:53:1,2008-10-03T19:00:00Z,26.6493,-81.8810,2.11,0.23,1111122 
SCCF RECON,ioos:station:SCCF:53:1,2008-10-03T20:00:00Z,26.6493,-81.8810,2.167,0.23,1111122 
SCCF RECON,ioos:station:SCCF:53:1,2008-10-03T21:00:00Z,26.6493,-81.8810,2.22,0.23,1111122 
SCCF RECON,ioos:station:SCCF:53:1,2008-10-03T22:00:00Z,26.6493,-81.8810,2.272,0.23,1111122 
SCCF RECON,ioos:station:SCCF:53:1,2008-10-03T23:00:00Z,26.6493,-81.8810,2.328,0.23,1111122 
SCCF RECON,ioos:station:SCCF:53:1,2008-10-04T00:00:00Z,26.6493,-81.8810,2.34,0.23,1111122 
SCCF RECON,ioos:station:SCCF:53:1,2008-10-04T01:00:00Z,26.6493,-81.8810,2.32,0.23,1111122 
SCCF RECON,ioos:station:SCCF:53:1,2008-10-04T02:00:00Z,26.6493,-81.8810,2.29,0.23,1111122 
SCCF RECON,ioos:station:SCCF:53:1,2008-10-04T03:00:00Z,26.6493,-81.8810,2.26,0.23,1111122 
SCCF RECON,ioos:station:SCCF:53:1,2008-10-04T04:00:00Z,26.6493,-81.8810,2.25,0.23,1111122 
SCCF RECON,ioos:station:SCCF:53:1,2008-10-04T05:00:00Z,26.6493,-81.8810,2.27,0.23,1111122 
SCCF RECON,ioos:station:SCCF:53:1,2008-10-04T06:00:00Z,26.6493,-81.8810,2.31,0.23,1111122 
SCCF RECON,ioos:station:SCCF:53:1,2008-10-04T07:00:00Z,26.6493,-81.8810,2.37,0.23,1111122 
SCCF RECON,ioos:station:SCCF:53:1,2008-10-04T08:00:00Z,26.6493,-81.8810,2.42,0.23,1111122 
SCCF RECON,ioos:station:SCCF:53:1,2008-10-04T09:00:00Z,26.6493,-81.8810,2.45,0.23,1111122 
SCCF RECON,ioos:station:SCCF:53:1,2008-10-04T10:00:00Z,26.6493,-81.8810,2.45,0.23,1111122 
SCCF RECON,ioos:station:SCCF:53:1,2008-10-04T11:00:00Z,26.6493,-81.8810,2.41,0.23,1111122 
SCCF RECON,ioos:station:SCCF:53:1,2008-10-04T12:00:00Z,26.6493,-81.8810,2.36,0.23,1111122 
SCCF RECON,ioos:station:SCCF:53:1,2008-10-04T13:00:00Z,26.6493,-81.8810,2.305,0.23,1111122 
SCCF RECON,ioos:station:SCCF:53:1,2008-10-04T14:00:00Z,26.6493,-81.8810,2.252,0.23,1111122 
SCCF RECON,ioos:station:SCCF:53:1,2008-10-04T15:00:00Z,26.6493,-81.8810,2.194,0.23,1111122 
SCCF RECON,ioos:station:SCCF:53:1,2008-10-04T16:00:00Z,26.6493,-81.8810,2.146,0.23,1111122 
SCCF RECON,ioos:station:SCCF:53:1,2008-10-04T17:00:00Z,26.6493,-81.8810,2.083,0.23,1111122 
SCCF RECON,ioos:station:SCCF:53:1,2008-10-04T18:00:00Z,26.6493,-81.8810,2.034,0.23,1111122 
SCCF RECON,ioos:station:SCCF:53:1,2008-10-04T19:00:00Z,26.6493,-81.8810,2.0,0.23,1111122 
SCCF RECON,ioos:station:SCCF:53:1,2008-10-04T20:00:00Z,26.6493,-81.8810,2.008,0.23,1111122 
SCCF RECON,ioos:station:SCCF:53:1,2008-10-04T21:00:00Z,26.6493,-81.8810,2.04,0.23,1111122 
SCCF RECON,ioos:station:SCCF:53:1,2008-10-04T22:00:00Z,26.6493,-81.8810,2.091,0.23,1111122 
SCCF RECON,ioos:station:SCCF:53:1,2008-10-04T23:00:00Z,26.6493,-81.8810,2.13,0.23,1111122 
SCCF RECON,ioos:station:SCCF:53:1,2008-10-05T00:00:00Z,26.6493,-81.8810,2.15,0.23,1111122 
SCCF RECON,ioos:station:SCCF:53:1,2008-10-05T01:00:00Z,26.6493,-81.8810,2.16,0.23,1111122 
SCCF RECON,ioos:station:SCCF:53:1,2008-10-05T02:00:00Z,26.6493,-81.8810,2.158,0.23,1111122 
SCCF RECON,ioos:station:SCCF:53:1,2008-10-05T03:00:00Z,26.6493,-81.8810,2.13,0.23,1111122 
SCCF RECON,ioos:station:SCCF:53:1,2008-10-05T04:00:00Z,26.6493,-81.8810,2.14,0.23,1111122 
SCCF RECON,ioos:station:SCCF:53:1,2008-10-05T05:00:00Z,26.6493,-81.8810,2.14,0.23,1111122 
SCCF RECON,ioos:station:SCCF:53:1,2008-10-05T06:00:00Z,26.6493,-81.8810,2.19,0.23,1111122 
SCCF RECON,ioos:station:SCCF:53:1,2008-10-05T07:00:00Z,26.6493,-81.8810,2.251,0.23,1111122 
SCCF RECON,ioos:station:SCCF:53:1,2008-10-05T08:00:00Z,26.6493,-81.8810,2.3,0.23,1111122 
SCCF RECON,ioos:station:SCCF:53:1,2008-10-05T09:00:00Z,26.6493,-81.8810,2.346,0.23,1111122 
SCCF RECON,ioos:station:SCCF:53:1,2008-10-05T10:00:00Z,26.6493,-81.8810,2.392,0.23,1111122 
SCCF RECON,ioos:station:SCCF:53:1,2008-10-05T11:00:00Z,26.6493,-81.8810,2.42,0.23,1111122 
SCCF RECON,ioos:station:SCCF:53:1,2008-10-05T12:00:00Z,26.6493,-81.8810,2.41,0.23,1111122 
SCCF RECON,ioos:station:SCCF:53:1,2008-10-05T13:00:00Z,26.6493,-81.8810,2.37,0.23,1111122 
SCCF RECON,ioos:station:SCCF:53:1,2008-10-05T14:00:00Z,26.6493,-81.8810,2.32,0.23,1111122 
SCCF RECON,ioos:station:SCCF:53:1,2008-10-05T15:00:00Z,26.6493,-81.8810,2.269,0.23,1111122 
SCCF RECON,ioos:station:SCCF:53:1,2008-10-05T16:00:00Z,26.6493,-81.8810,2.21,0.23,1111122 
SCCF RECON,ioos:station:SCCF:53:1,2008-10-05T17:00:00Z,26.6493,-81.8810,2.155,0.23,1111122 
SCCF RECON,ioos:station:SCCF:53:1,2008-10-05T18:00:00Z,26.6493,-81.8810,2.093,0.23,1111122 
SCCF RECON,ioos:station:SCCF:53:1,2008-10-05T19:00:00Z,26.6493,-81.8810,2.043,0.23,1111122 
SCCF RECON,ioos:station:SCCF:53:1,2008-10-05T20:00:00Z,26.6493,-81.8810,2.031,0.23,1111122 
SCCF RECON,ioos:station:SCCF:53:1,2008-10-05T21:00:00Z,26.6493,-81.8810,2.068,0.23,1111122 
SCCF RECON,ioos:station:SCCF:53:1,2008-10-05T22:00:00Z,26.6493,-81.8810,2.088,0.23,1111122 
SCCF RECON,ioos:station:SCCF:53:1,2008-10-05T23:00:00Z,26.6493,-81.8810,2.131,0.23,1111122 
SCCF RECON,ioos:station:SCCF:53:1,2008-10-06T00:00:00Z,26.6493,-81.8810,2.18,0.23,1111122 
SCCF RECON,ioos:station:SCCF:53:1,2008-10-06T01:00:00Z,26.6493,-81.8810,2.22,0.23,1111122 
SCCF RECON,ioos:station:SCCF:53:1,2008-10-06T02:00:00Z,26.6493,-81.8810,2.24,0.23,1111122 
SCCF RECON,ioos:station:SCCF:53:1,2008-10-06T03:00:00Z,26.6493,-81.8810,2.25,0.23,1111122 
SCCF RECON,ioos:station:SCCF:53:1,2008-10-06T04:00:00Z,26.6493,-81.8810,2.25,0.23,1111122 
SCCF RECON,ioos:station:SCCF:53:1,2008-10-06T05:00:00Z,26.6493,-81.8810,2.24,0.23,1111122 
SCCF RECON,ioos:station:SCCF:53:1,2008-10-06T06:00:00Z,26.6493,-81.8810,2.23,0.23,1111122 
SCCF RECON,ioos:station:SCCF:53:1,2008-10-06T07:00:00Z,26.6493,-81.8810,2.24,0.23,1111122 
SCCF RECON,ioos:station:SCCF:53:1,2008-10-06T08:00:00Z,26.6493,-81.8810,2.27,0.23,1111122 
SCCF RECON,ioos:station:SCCF:53:1,2008-10-06T09:00:00Z,26.6493,-81.8810,2.33,0.23,1111122 
SCCF RECON,ioos:station:SCCF:53:1,2008-10-06T10:00:00Z,26.6493,-81.8810,2.39,0.24,1111122 
SCCF RECON,ioos:station:SCCF:53:1,2008-10-06T11:00:00Z,26.6493,-81.8810,2.425,0.24,1111122 
SCCF RECON,ioos:station:SCCF:53:1,2008-10-06T12:00:00Z,26.6493,-81.8810,2.42,0.24,1111122 
SCCF RECON,ioos:station:SCCF:53:1,2008-10-06T13:00:00Z,26.6493,-81.8810,2.37,0.23,1111122 
SCCF RECON,ioos:station:SCCF:53:1,2008-10-06T14:00:00Z,26.6493,-81.8810,2.331,0.23,1111122 
SCCF RECON,ioos:station:SCCF:53:1,2008-10-06T15:00:00Z,26.6493,-81.8810,2.288,0.24,1111122 
SCCF RECON,ioos:station:SCCF:53:1,2008-10-06T16:00:00Z,26.6493,-81.8810,2.235,0.23,1111122 
SCCF RECON,ioos:station:SCCF:53:1,2008-10-06T17:00:00Z,26.6493,-81.8810,2.186,0.23,1111122 
SCCF RECON,ioos:station:SCCF:53:1,2008-10-06T18:00:00Z,26.6493,-81.8810,2.13,0.23,1111122 
SCCF RECON,ioos:station:SCCF:53:1,2008-10-06T19:00:00Z,26.6493,-81.8810,2.08,0.24,1111122 
SCCF RECON,ioos:station:SCCF:53:1,2008-10-06T20:00:00Z,26.6493,-81.8810,2.06,0.24,1111122 
SCCF RECON,ioos:station:SCCF:53:1,2008-10-06T21:00:00Z,26.6493,-81.8810,2.075,0.24,1111122 
SCCF RECON,ioos:station:SCCF:53:1,2008-10-06T22:00:00Z,26.6493,-81.8810,2.07,0.24,1111122 
SCCF RECON,ioos:station:SCCF:53:1,2008-10-06T23:00:00Z,26.6493,-81.8810,2.123,0.24,1111122 
SCCF RECON,ioos:station:SCCF:53:1,2008-10-07T00:00:00Z,26.6493,-81.8810,2.18,0.23,1111122 
SCCF RECON,ioos:station:SCCF:53:1,2008-10-07T01:00:00Z,26.6493,-81.8810,2.23,0.23,1111122 
SCCF RECON,ioos:station:SCCF:53:1,2008-10-07T02:00:00Z,26.6493,-81.8810,2.278,0.23,1111122 
SCCF RECON,ioos:station:SCCF:53:1,2008-10-07T03:00:00Z,26.6493,-81.8810,2.312,0.24,1111122 
SCCF RECON,ioos:station:SCCF:53:1,2008-10-07T04:00:00Z,26.6493,-81.8810,2.33,0.24,1111122 
SCCF RECON,ioos:station:SCCF:53:1,2008-10-07T05:00:00Z,26.6493,-81.8810,2.3,0.24,1111122 
SCCF RECON,ioos:station:SCCF:53:1,2008-10-07T06:00:00Z,26.6493,-81.8810,2.29,0.3,1111122 
SCCF RECON,ioos:station:SCCF:53:1,2008-10-07T07:00:00Z,26.6493,-81.8810,2.28,0.27,1111122 
SCCF RECON,ioos:station:SCCF:53:1,2008-10-07T08:00:00Z,26.6493,-81.8810,2.28,0.4,1111122 
SCCF RECON,ioos:station:SCCF:53:1,2008-10-07T09:00:00Z,26.6493,-81.8810,2.3,0.56,1111122 
SCCF RECON,ioos:station:SCCF:53:1,2008-10-07T10:00:00Z,26.6493,-81.8810,2.35,0.71,1111122 
SCCF RECON,ioos:station:SCCF:53:1,2008-10-07T11:00:00Z,26.6493,-81.8810,2.4,0.41,1111122 
SCCF RECON,ioos:station:SCCF:53:1,2008-10-07T12:00:00Z,26.6493,-81.8810,2.43,1.79,1111122 
SCCF RECON,ioos:station:SCCF:53:1,2008-10-07T13:00:00Z,26.6493,-81.8810,2.418,1.53,1111122 
SCCF RECON,ioos:station:SCCF:53:1,2008-10-07T14:00:00Z,26.6493,-81.8810,2.37,0.72,1111122 
SCCF RECON,ioos:station:SCCF:53:1,2008-10-07T15:00:00Z,26.6493,-81.8810,2.32,0.88,1111122 
SCCF RECON,ioos:station:SCCF:53:1,2008-10-07T16:00:00Z,26.6493,-81.8810,2.269,1.21,1111122 
SCCF RECON,ioos:station:SCCF:53:1,2008-10-07T17:00:00Z,26.6493,-81.8810,2.21,0.59,1111122 
SCCF RECON,ioos:station:SCCF:53:1,2008-10-07T18:00:00Z,26.6493,-81.8810,2.159,0.37,1111122 
SCCF RECON,ioos:station:SCCF:53:1,2008-10-07T19:00:00Z,26.6493,-81.8810,2.106,0.3,1111122 
SCCF RECON,ioos:station:SCCF:53:1,2008-10-07T20:00:00Z,26.6493,-81.8810,2.058,0.28,1111122 
SCCF RECON,ioos:station:SCCF:53:1,2008-10-07T21:00:00Z,26.6493,-81.8810,2.027,0.25,1111122 
SCCF RECON,ioos:station:SCCF:53:1,2008-10-07T22:00:00Z,26.6493,-81.8810,2.018,0.24,1111122 
SCCF RECON,ioos:station:SCCF:53:1,2008-10-07T23:00:00Z,26.6493,-81.8810,2.06,0.26,1111122 
SCCF RECON,ioos:station:SCCF:53:1,2008-10-08T00:00:00Z,26.6493,-81.8810,2.101,0.32,1111122 
SCCF RECON,ioos:station:SCCF:53:1,2008-10-08T01:00:00Z,26.6493,-81.8810,2.15,0.28,1111122 
SCCF RECON,ioos:station:SCCF:53:1,2008-10-08T02:00:00Z,26.6493,-81.8810,2.22,0.39,1111122 
SCCF RECON,ioos:station:SCCF:53:1,2008-10-08T03:00:00Z,26.6493,-81.8810,2.27,0.33,1111122 
SCCF RECON,ioos:station:SCCF:53:1,2008-10-08T04:00:00Z,26.6493,-81.8810,2.3,0.39,1111122 
SCCF RECON,ioos:station:SCCF:53:1,2008-10-08T05:00:00Z,26.6493,-81.8810,2.32,0.77,1111122 
SCCF RECON,ioos:station:SCCF:53:1,2008-10-08T06:00:00Z,26.6493,-81.8810,2.32,0.98,1111122 
SCCF RECON,ioos:station:SCCF:53:1,2008-10-08T07:00:00Z,26.6493,-81.8810,2.31,0.6,1111122 
SCCF RECON,ioos:station:SCCF:53:1,2008-10-08T08:00:00Z,26.6493,-81.8810,2.301,1.26,1111122 
SCCF RECON,ioos:station:SCCF:53:1,2008-10-08T09:00:00Z,26.6493,-81.8810,2.3,1.57,1111122 
SCCF RECON,ioos:station:SCCF:53:1,2008-10-08T10:00:00Z,26.6493,-81.8810,2.33,2.27,1111122 
SCCF RECON,ioos:station:SCCF:53:1,2008-10-08T11:00:00Z,26.6493,-81.8810,2.39,2.18,1111122 
SCCF RECON,ioos:station:SCCF:53:1,2008-10-08T12:00:00Z,26.6493,-81.8810,2.43,2.43,1111122 
SCCF RECON,ioos:station:SCCF:53:1,2008-10-08T13:00:00Z,26.6493,-81.8810,2.47,2.41,1111122 
SCCF RECON,ioos:station:SCCF:53:1,2008-10-08T14:00:00Z,26.6493,-81.8810,2.482,2.34,1111122 
SCCF RECON,ioos:station:SCCF:53:1,2008-10-08T15:00:00Z,26.6493,-81.8810,2.468,2.11,1111122 
SCCF RECON,ioos:station:SCCF:53:1,2008-10-08T16:00:00Z,26.6493,-81.8810,2.426,1.56,1111122 
SCCF RECON,ioos:station:SCCF:53:1,2008-10-08T17:00:00Z,26.6493,-81.8810,2.36,1.1,1111122 
SCCF RECON,ioos:station:SCCF:53:1,2008-10-08T18:00:00Z,26.6493,-81.8810,2.3,1.49,1111122 
SCCF RECON,ioos:station:SCCF:53:1,2008-10-08T19:00:00Z,26.6493,-81.8810,2.25,1.35,1111122 
SCCF RECON,ioos:station:SCCF:53:1,2008-10-08T20:00:00Z,26.6493,-81.8810,2.194,0.84,1111122 
SCCF RECON,ioos:station:SCCF:53:1,2008-10-08T21:00:00Z,26.6493,-81.8810,2.142,0.47,1111122 
SCCF RECON,ioos:station:SCCF:53:1,2008-10-08T22:00:00Z,26.6493,-81.8810,2.11,0.42,1111122 
SCCF RECON,ioos:station:SCCF:53:1,2008-10-08T23:00:00Z,26.6493,-81.8810,2.09,0.34,1111122 
SCCF RECON,ioos:station:SCCF:53:1,2008-10-09T00:00:00Z,26.6493,-81.8810,2.12,0.31,1111122 
SCCF RECON,ioos:station:SCCF:53:1,2008-10-09T01:00:00Z,26.6493,-81.8810,2.16,1.65,1111122 
SCCF RECON,ioos:station:SCCF:53:1,2008-10-09T02:00:00Z,26.6493,-81.8810,2.23,1.92,1111122 
SCCF RECON,ioos:station:SCCF:53:1,2008-10-09T03:00:00Z,26.6493,-81.8810,2.29,1.91,1111122 
SCCF RECON,ioos:station:SCCF:53:1,2008-10-09T04:00:00Z,26.6493,-81.8810,2.35,1.95,1111122 
SCCF RECON,ioos:station:SCCF:53:1,2008-10-09T05:00:00Z,26.6493,-81.8810,2.38,1.8,1111122 
SCCF RECON,ioos:station:SCCF:53:1,2008-10-09T06:00:00Z,26.6493,-81.8810,2.41,1.78,1111122 
SCCF RECON,ioos:station:SCCF:53:1,2008-10-09T07:00:00Z,26.6493,-81.8810,2.41,1.87,1111122 
SCCF RECON,ioos:station:SCCF:53:1,2008-10-09T08:00:00Z,26.6493,-81.8810,2.358,1.54,1111122 
SCCF RECON,ioos:station:SCCF:53:1,2008-10-09T09:00:00Z,26.6493,-81.8810,2.31,0.78,1111122 
SCCF RECON,ioos:station:SCCF:53:1,2008-10-09T10:00:00Z,26.6493,-81.8810,2.28,1.47,1111122 
SCCF RECON,ioos:station:SCCF:53:1,2008-10-09T11:00:00Z,26.6493,-81.8810,2.28,1.42,1111122 
SCCF RECON,ioos:station:SCCF:53:1,2008-10-09T12:00:00Z,26.6493,-81.8810,2.32,1.67,1111122 
SCCF RECON,ioos:station:SCCF:53:1,2008-10-09T13:00:00Z,26.6493,-81.8810,2.39,1.79,1111122 
SCCF RECON,ioos:station:SCCF:53:1,2008-10-09T14:00:00Z,26.6493,-81.8810,2.44,1.9,1111122 
SCCF RECON,ioos:station:SCCF:53:1,2008-10-09T15:00:00Z,26.6493,-81.8810,2.49,1.75,1111122 
SCCF RECON,ioos:station:SCCF:53:1,2008-10-09T16:00:00Z,26.6493,-81.8810,2.51,1.5,1111122 
SCCF RECON,ioos:station:SCCF:53:1,2008-10-09T17:00:00Z,26.6493,-81.8810,2.49,1.5,1111122 
SCCF RECON,ioos:station:SCCF:53:1,2008-10-09T18:00:00Z,26.6493,-81.8810,2.43,1.09,1111122 
SCCF RECON,ioos:station:SCCF:53:1,2008-10-09T19:00:00Z,26.6493,-81.8810,2.361,0.92,1111122 
SCCF RECON,ioos:station:SCCF:53:1,2008-10-09T20:00:00Z,26.6493,-81.8810,2.296,0.78,1111122 
SCCF RECON,ioos:station:SCCF:53:1,2008-10-09T21:00:00Z,26.6493,-81.8810,2.242,0.51,1111122 
SCCF RECON,ioos:station:SCCF:53:1,2008-10-09T22:00:00Z,26.6493,-81.8810,2.189,0.36,1111122 
SCCF RECON,ioos:station:SCCF:53:1,2008-10-09T23:00:00Z,26.6493,-81.8810,2.152,0.3,1111122 
SCCF RECON,ioos:station:SCCF:53:1,2008-10-10T00:00:00Z,26.6493,-81.8810,2.13,0.26,1111122 
SCCF RECON,ioos:station:SCCF:53:1,2008-10-10T01:00:00Z,26.6493,-81.8810,2.16,0.25,1111122 
SCCF RECON,ioos:station:SCCF:53:1,2008-10-10T02:00:00Z,26.6493,-81.8810,2.22,0.27,1111122 
SCCF RECON,ioos:station:SCCF:53:1,2008-10-10T03:00:00Z,26.6493,-81.8810,2.29,0.38,1111122 
SCCF RECON,ioos:station:SCCF:53:1,2008-10-10T04:00:00Z,26.6493,-81.8810,2.34,0.55,1111122 
SCCF RECON,ioos:station:SCCF:53:1,2008-10-10T05:00:00Z,26.6493,-81.8810,2.39,0.57,1111122 
SCCF RECON,ioos:station:SCCF:53:1,2008-10-10T06:00:00Z,26.6493,-81.8810,2.42,0.59,1111122 
SCCF RECON,ioos:station:SCCF:53:1,2008-10-10T07:00:00Z,26.6493,-81.8810,2.41,0.61,1111122 
SCCF RECON,ioos:station:SCCF:53:1,2008-10-10T08:00:00Z,26.6493,-81.8810,2.366,0.5,1111122 
SCCF RECON,ioos:station:SCCF:53:1,2008-10-10T09:00:00Z,26.6493,-81.8810,2.31,0.37,1111122 
SCCF RECON,ioos:station:SCCF:53:1,2008-10-10T10:00:00Z,26.6493,-81.8810,2.27,0.3,1111122 
SCCF RECON,ioos:station:SCCF:53:1,2008-10-10T11:00:00Z,26.6493,-81.8810,2.25,0.28,1111122 
SCCF RECON,ioos:station:SCCF:53:1,2008-10-10T12:00:00Z,26.6493,-81.8810,2.25,0.25,1111122 
SCCF RECON,ioos:station:SCCF:53:1,2008-10-10T13:00:00Z,26.6493,-81.8810,2.309,0.26,1111122 
SCCF RECON,ioos:station:SCCF:53:1,2008-10-10T14:00:00Z,26.6493,-81.8810,2.37,0.3,1111122 
SCCF RECON,ioos:station:SCCF:53:1,2008-10-10T15:00:00Z,26.6493,-81.8810,2.424,0.41,1111122 
SCCF RECON,ioos:station:SCCF:53:1,2008-10-10T16:00:00Z,26.6493,-81.8810,2.465,0.48,1111122 
SCCF RECON,ioos:station:SCCF:53:1,2008-10-10T17:00:00Z,26.6493,-81.8810,2.478,0.54,1111122 
SCCF RECON,ioos:station:SCCF:53:1,2008-10-10T18:00:00Z,26.6493,-81.8810,2.44,0.46,1111122 
SCCF RECON,ioos:station:SCCF:53:1,2008-10-10T19:00:00Z,26.6493,-81.8810,2.371,0.31,1111122 
SCCF RECON,ioos:station:SCCF:53:1,2008-10-10T20:00:00Z,26.6493,-81.8810,2.312,0.28,1111122 
SCCF RECON,ioos:station:SCCF:53:1,2008-10-10T21:00:00Z,26.6493,-81.8810,2.258,0.26,1111122 
SCCF RECON,ioos:station:SCCF:53:1,2008-10-10T22:00:00Z,26.6493,-81.8810,2.201,0.24,1111122 
SCCF RECON,ioos:station:SCCF:53:1,2008-10-10T23:00:00Z,26.6493,-81.8810,2.15,0.24,1111122 
SCCF RECON,ioos:station:SCCF:53:1,2008-10-11T00:00:00Z,26.6493,-81.8810,2.11,0.24,1111122 
SCCF RECON,ioos:station:SCCF:53:1,2008-10-11T01:00:00Z,26.6493,-81.8810,2.115,0.23,1111122 
SCCF RECON,ioos:station:SCCF:53:1,2008-10-11T02:00:00Z,26.6493,-81.8810,2.16,0.23,1111122 
SCCF RECON,ioos:station:SCCF:53:1,2008-10-11T03:00:00Z,26.6493,-81.8810,2.213,0.24,1111122 
SCCF RECON,ioos:station:SCCF:53:1,2008-10-11T04:00:00Z,26.6493,-81.8810,2.27,0.24,1111122 
SCCF RECON,ioos:station:SCCF:53:1,2008-10-11T05:00:00Z,26.6493,-81.8810,2.33,0.24,1111122 
SCCF RECON,ioos:station:SCCF:53:1,2008-10-11T06:00:00Z,26.6493,-81.8810,2.37,0.25,1111122 
SCCF RECON,ioos:station:SCCF:53:1,2008-10-11T07:00:00Z,26.6493,-81.8810,2.36,0.27,1111122 
SCCF RECON,ioos:station:SCCF:53:1,2008-10-11T08:00:00Z,26.6493,-81.8810,2.32,0.25,1111122 
SCCF RECON,ioos:station:SCCF:53:1,2008-10-11T09:00:00Z,26.6493,-81.8810,2.26,0.24,1111122 
SCCF RECON,ioos:station:SCCF:53:1,2008-10-11T10:00:00Z,26.6493,-81.8810,2.21,0.24,1111122 
SCCF RECON,ioos:station:SCCF:53:1,2008-10-11T11:00:00Z,26.6493,-81.8810,2.177,0.25,1111122 
SCCF RECON,ioos:station:SCCF:53:1,2008-10-11T12:00:00Z,26.6493,-81.8810,2.15,0.24,1111122 
SCCF RECON,ioos:station:SCCF:53:1,2008-10-11T13:00:00Z,26.6493,-81.8810,2.17,0.23,1111122 
SCCF RECON,ioos:station:SCCF:53:1,2008-10-11T14:00:00Z,26.6493,-81.8810,2.25,0.24,1111122 
SCCF RECON,ioos:station:SCCF:53:1,2008-10-11T15:00:00Z,26.6493,-81.8810,2.31,0.26,1111122 
SCCF RECON,ioos:station:SCCF:53:1,2008-10-11T16:00:00Z,26.6493,-81.8810,2.37,0.29,1111122 
SCCF RECON,ioos:station:SCCF:53:1,2008-10-11T17:00:00Z,26.6493,-81.8810,2.41,0.38,1111122 
SCCF RECON,ioos:station:SCCF:53:1,2008-10-11T18:00:00Z,26.6493,-81.8810,2.417,0.55,1111122 
SCCF RECON,ioos:station:SCCF:53:1,2008-10-11T19:00:00Z,26.6493,-81.8810,2.379,0.47,1111122 
SCCF RECON,ioos:station:SCCF:53:1,2008-10-11T20:00:00Z,26.6493,-81.8810,2.305,0.31,1111122 
SCCF RECON,ioos:station:SCCF:53:1,2008-10-11T21:00:00Z,26.6493,-81.8810,2.241,0.33,1111122 